This demonstration page uses our WeatherBlox Daily Observations layout. Learn more.

Left ArrowRight Arrow

Hourly Observations for January 15, 2020

Temp ( °F °C ) Dew Point ( °F °C ) Humidity (%) Winds ( mph kmh ) Pressure ( in mb ) Visibility ( mi km ) Precip ( " mm )
12:53 am 00:53 Mostly Cloudy with Freezing Fog 29 -1.7 28 -2.2 96 96 ENE 9 15 29.97 1015 0 0 0.00 0.00
1:53 am 01:53 Mostly Cloudy with Freezing Fog 29 -1.7 28 -2.2 96 96 ENE 6 9 29.96 1015 0 0 0.00 0.00
2:53 am 02:53 Mostly Cloudy with Mist and Fog 29 -1.7 27 -2.8 92 92 NE 5 7 29.98 1015 1 1 0.00 0.00
3:00 am 03:00 Cloudy with Mist and Fog 29 -1.7 28 -2.2 96 96 Calm 30.02 1017 1 2 0.00 0.00
3:28 am 03:28 Cloudy with Mist and Fog 29 -1.7 27 -2.8 92 92 NNW 6 9 30.06 1018 2 3 0.00 0.00
3:53 am 03:53 Cloudy with Mist and Fog 29 -1.7 27 -2.8 92 92 NNW 7 11 30.03 1017 3 5 0.00 0.00
4:18 am 04:18 Cloudy with Mist and Fog 29 -1.7 28 -2.2 96 96 NNW 9 15 30.09 1019 3 5 0.00 0.00
4:22 am 04:22 Cloudy with Mist and Fog 29 -1.7 27 -2.8 92 92 NNW 12 19 30.09 1019 3 4 0.00 0.00
4:53 am 04:53 Cloudy with Mist and Fog 28 -2.2 27 -2.8 96 96 N 18 30 30.07 1018 2 3 0.00 0.00
5:35 am 05:35 Cloudy with Mist and Fog 28 -2.2 26 -3.3 92 92 NNW 15 24 30.13 1020 3 5 0.00 0.00
5:53 am 05:53 Cloudy with Mist and Fog 28 -2.2 26 -3.3 92 92 N 12 19 30.10 1019 4 6 0.00 0.00
6:24 am 06:24 Cloudy with Mist and Fog 28 -2.2 26 -3.3 92 92 NNW 14 22 30.17 1022 5 8 0.00 0.00
6:53 am 06:53 Cloudy 28 -2.2 24 -4.4 85 85 N 20 31 30.15 1021 7 11 0.00 0.00
7:44 am 07:44 Cloudy 25 -4 21 -6 86 86 N 23 37 30.25 1024 7 11 0.00 0.00
7:53 am 07:53 Cloudy 25 -3.9 21 -6.1 85 85 NNW 20 31 30.21 1023 8 13 0.00 0.00
8:04 am 08:04 Mostly Cloudy 23 -5 19 -7.2 85 85 N 21 33 30.27 1025 8 13 0.00 0.00
8:27 am 08:27 Mostly Sunny 21 -6.1 17 -8.3 85 85 N 18 30 30.31 1026 8 13 0.00 0.00
8:53 am 08:53 Sunny 19 -7.2 14 -10 81 81 N 16 26 30.26 1025 10 16 0.00 0.00
9:53 am 09:53 Sunny 19 -7.2 11 -11.7 71 71 N 18 30 30.30 1026 10 16 0.00 0.00
10:53 am 10:53 Sunny 19 -7.2 9 -12.8 65 65 NNW 23 37 30.35 1028 10 16 0.00 0.00
11:53 am 11:53 Sunny 20 -6.7 8 -13.3 60 60 NNW 20 31 30.36 1028 10 16 0.00 0.00
12:53 pm 12:53 Sunny 22 -5.6 9 -12.8 57 57 N 18 30 30.35 1028 10 16 0.00 0.00
1:53 pm 13:53 Sunny 23 -5 9 -12.8 55 55 N 16 26 30.36 1028 10 16 0.00 0.00
2:53 pm 14:53 Sunny 24 -4.4 8 -13.3 50 50 N 15 24 30.37 1029 10 16 0.00 0.00
3:53 pm 15:53 Sunny 22 -5.6 6 -14.4 50 50 N 14 22 30.43 1031 10 16 0.00 0.00
4:53 pm 16:53 Sunny 21 -6.1 6 -14.4 52 52 N 16 26 30.49 1033 10 16 0.00 0.00
5:53 pm 17:53 Clear 17 -8.3 5 -15 59 59 N 15 24 30.53 1034 10 16 0.00 0.00
6:53 pm 18:53 Clear 14 -10 3 -16.1 61 61 N 15 24 30.58 1035 10 16 0.00 0.00
7:53 pm 19:53 Clear 12 -11.1 1 -17.2 61 61 N 16 26 30.62 1037 10 16 0.00 0.00
8:53 pm 20:53 Clear 10 -12.2 0 -17.8 63 63 N 16 26 30.66 1038 10 16 0.00 0.00
9:53 pm 21:53 Clear 9 -12.8 -1 -18.3 64 64 N 9 15 30.70 1040 10 16 0.00 0.00
10:53 pm 22:53 Clear 7 -13.9 -1 -18.3 70 70 NNE 5 7 30.73 1041 10 16 0.00 0.00
11:53 pm 23:53 Clear 7 -13.9 -2 -18.9 66 66 NE 3 6 30.74 1041 10 16 0.00 0.00

Powered by AerisWeather